{"data":{"norad_id":58604,"intl_designator":"2023-200R","name":"STARLINK-31088","alt_names":[],"object_type":"PAYLOAD","status":"ACTIVE","operator":null,"country":"US","launch_date":"2023-12-19","launch_site_code":"AFETR","launch_vehicle":null,"mission":null,"orbit_class":"UNKNOWN","rcs_meters":null,"size_class":null,"mass_kg":null,"dimensions":null,"purposes":["comms"],"wikipedia_slug":null,"has_3d_model":false,"image_url":null,"decayed_at":null,"tle_current":{"epoch":"2026-09-19T01:05:04.479936Z","epoch_age_seconds":275438,"freshness":"STALE","line1":"1 58604U 23200R   26262.04519074  .00001355  00000+0  58771-4 0  9993","line2":"2 58604  43.0040 156.7285 0001793 256.9662 103.0989 15.27570523153181","mean_motion":15.27570523,"eccentricity":0.0001793,"inclination_deg":43.004,"raan_deg":156.7285,"arg_perigee_deg":256.9662,"mean_anomaly_deg":103.0989,"bstar":5.8771e-5,"rev_number":15318,"period_min":94.267333541628,"perigee_km":481.84725797856,"apogee_km":484.30768948884,"semimajor_km":6861.2144737337,"source":"CELESTRAK","updated_at":"2026-09-21T09:00:33.919847Z"}}}